"Pseudo-MPEC" for A10qhkr

Created 2020 Sep 16 21:07:05 UT using Find_Orb

Click here for an explanation of pseudo-MPECs

 
 Astrometry: 
     A10qhkr  C2020 08 29.43791 02 57 23.52 -00 37 46.5    ~9E9q 20.4 GVNEOCP703
     A10qhkr  C2020 08 29.44330 02 57 23.29 -00 37 49.7    ~9E9q       VNEOCP703
     A10qhkr  C2020 08 29.44868 02 57 23.09 -00 37 51.9    ~9E9q       VNEOCP703
     A10qhkr  C2020 08 298@ZII7BdHYNb:PR8tgJVRu%i+YeTh-G.AJWXmu'$iATvYKJuZRK9F51
     A10qhkr  C2020 08 29AVr`e`Hfoi6H)VOdZr_hHrmsrC-$nGF$?`iZ.UOxF/F)eOmyGRBJF51
     A10qhkr  C2020 09 10J5CvX*!Q!+qaNQJ^ZH*CH3cw[D3^n8tkh,PC3'DrR`F]0^q2B;ZVF51
     A10qhkr  C2020 09 10XW7tU$YJp-o_9E(''xYgy=Q74cZ)C6a'\U_oYV)oo(wv/$NCE':PF51
     A10qhkr  C2020 09 12.49558902 38 03.68 -03 59 23.8    ~9CGb 19.71oVNEOCPT08
     A10qhkr  C2020 09 12.50020802 38 03.12 -03 59 28.6    ~9CGb 19.23oVNEOCPT08
     A10qhkr  C2020 09 12.50576502 38 02.48 -03 59 33.4    ~9CGb 19.47oVNEOCPT08
     A10qhkr  C2020 09 12.51313202 38 01.69 -03 59 41.3    ~9CGb 19.42oVNEOCPT08
     A10qhkr  C2020 09 12?(9S26iM6JcFcXY?44*EfZ.Db+jjE@cN4:J_g;c+;L=tl,kZ66FJF51
     A10qhkr  C2020 09 12xkf*50O/sWwiqHN9=kxX;,dGwx7gE;@j(JY8Shf1fU\h^O_)M=GCF51
     A10qhkr  C2020 09 12#eDUd6vcQ-3fft.l_N!up9KUCRLDO*dt_Nd[k;xx)/8LUQ!0MKJRF51
     A10qhkr KC2020 09 12'G*Sk4]U.v]rXNg0LpNjYAqhrLyywIQXp6f;J#K2.*27KB=vJb/EB49
     A10qhkr KC2020 09 12Yxr_wq\F#;p9'ec^6u^yYp6^lSZqojNh43e`Jec?[VF?^7nC6'mLB49
     A10qhkr KC2020 09 13e:YF1O6'WXpECVo.s4COhCHLZIpwqvb10.v9xWp0M;S]d;0R8_@\595
     A10qhkr KC2020 09 13-G#pggc=RsK(2$`]4gxB%=75IPujf\7\:aInO31[,7s;XV)E.KJK595
     A10qhkr KC2020 09 13c`Om5?3K0oeq?ZRE68\Tew2A'W*,\/Iv^1#)\gy_69J[O)\o;WPM204
     A10qhkr KC2020 09 13a]/q,_U#p3,,_.9WxS[Z(xR24G'kxTS[=JAYDLl+YGjA`H@m)Tv[204
     A10qhkr  C2020 09 13,boSCa+R:@obLQ`xDE1E6-_^'SAstrometryA[)#AkLNh3Z@'TjyL01
     A10qhkr  C2020 09 13pQWnONl33*nfLOo)J:Ux)C2#$gmX]/cn$8K^fqKS?@(Hi1r^@JA=L01
     A10qhkr  C2020 09 13]Dv$8.;!qdY/5=O,B(bajclU5*P`KGwowUa+p=ZPeIHn0jQr,S=IL01
     A10qhkr KC2020 09 13.11119002 36 55.18 -04 10 08.1    ~9D3b 19.1 GVNEOCPI93
     A10qhkr KC2020 09 13.11606202 36 54.60 -04 10 12.6    ~9D3b 19.1 GVNEOCPI93
     A10qhkr KC2020 09 13.12142402 36 54.00 -04 10 19.0    ~9D3b 19.0 GVNEOCPI93
     A10qhkr KC2020 09 13yr_)y.JP$G+?-U6/6gO95CIYtve(95'eNehMsl#QmbK=ad-N9G=\V01
     A10qhkr KC2020 09 13Jw1Fb9_Q@K%+9RY_/0RK[SiCqvK0wClH@#n\pT47YmvLU1/@=[!JV01
     A10qhkr KC2020 09 13$xAT$QRGxAUn#Lkc5_9a_ILHij]j:;C\pGredacted;gHHeHiApFV01
     A10qhkr KC2020 09 13mM80Q#XjL*8;NP`Ck)%a*lc,2eu-6ATc3dYdA7TnBGcJQImB,L^jH36
     A10qhkr KC2020 09 13?!v+gK8#Gl@Z0yyQ7Sy3Tc]+fQ(MWf=PAn[.?sef?+GO_[PS4=bQH36
     A10qhkr KC2020 09 13m+uEc;b9]VOEv1BpcK/c`_quV3LWDViYK,Mbb.8X?UirLy6f8aaoH36
     A10qhkr KC2020 09 13thT2v0V06b]x$9,=q%LLIxRh:Oc#nCXZ@B6PXxgW#Z=t+CWlxcngH36
     A10qhkr ^C2020 09 13.58803402 36 00.944-04 18 31.88   ~9DMb 19.41GVNEOCP568
     A10qhkr ^C2020 09 13.58922102 36 00.805-04 18 33.15   ~9DMb 19.35GVNEOCP568
     A10qhkr ^C2020 09 13.59040202 36 00.667-04 18 34.35   ~9DMb 19.28GVNEOCP568
     A10qhkr KC2020 09 13(bpbt0I,jCN'MaYnr6N50420E$c/L*7iSoNcrZ-/hiJH^B^fWIjYE23
     A10qhkr KC2020 09 13FHv/Or'SgUp96#UylyIn7ER#UXF5XoeAxlApst7(DPrG`K9_N-vsE23
     A10qhkr KC2020 09 13:Svoev^wEJclickCp_9i3*KW[D%AorZDZ0qNcmC)D\i`E3V*yreJE23
     A10qhkr 1C2020 09 13OFHTAr'Upaeg5(521Yn8H.75dup=m[BC'jQXW2svT.$iu6C(JRs:Q62
     A10qhkr 1C2020 09 13pn04kV_Lj(=#9)v57_9Z)\W1a/^!S1noVJ.\$RduU#%,8k+w%5Y\Q62
     A10qhkr KC2020 09 13@F_u8,taDIxH!DWs#=esbqJA,*#,$#E)]`#xW!G/$#L4E%QeR9\#106
     A10qhkr KC2020 09 13ZBa7(eoN?xed7WeF[hr]r-]oFsLZ;3rCRAqr?7Ru!iSfih/bL14B106
     A10qhkr KC2020 09 14?K7?x=mPL6]mb/fy;bT^otM])ico#,h(w-;asEgd\4k!Y,=gjfa#106
     A10qhkr KC2020 09 14kag:eM(G$5(sQU?sUSSG.fSKSx7;pn`W[vb(xgq`H5YA/5t6\)C-106
     A10qhkr KC2020 09 14\Axwkl7I(7EDsCek#Lm9_4NbDGbQ*])[OPsx2dwV^uBORHBEaWGjE94
     A10qhkr KC2020 09 14?@.dgJoK.Sa]]45ox2%\a!1n#.9??;/^[qBL(P%i3#e!4j8PFIDIE94
     A10qhkr KC2020 09 1417hPRQ53Ik6k=ruva.l0WsxH1(n[ql`wpk2^:WN_OFZ%aBr%,Ox_E94
     A10qhkr KC2020 09 14Q0AyEHqkf1h6Ttq2HVaHkf/384th3Y?C?BHj3h!YWV-NhV+)$vJhE94
     A10qhkr KC2020 09 14cb]PiJfqC.s3BhDuE(tC8YLq/v_r9a0C+mqwjqWH3ElbkFD?i]xpE94
     A10qhkr KC2020 09 14.alm3_.C)9JP1GA7rx9_D+Gi+lbu):k7!7*4wl2,\0q]QbV*!o(`E94
     A10qhkr KC2020 09 14=Kkc3fFM1](IAF3Nsd6DB,X-'.mxY9aF%-s7D!:eq:S@0K@,1R2sL07
     A10qhkr KC2020 09 14Zt@XSYtS_'P'jES*x-$YKh^luoD-hX(/75h1i'lo1rQUr^_Jk=)pL07
     A10qhkr 1C2020 09 14,gb']ah%?p40`WA)8hRJ:]%2A?]f\@]B.yIE`8JZb9DJf+b.8fHu246
     A10qhkr 1C2020 09 14l5=eL]Gl@j@myZ_Jn=9$gYd)gpiwbXnM*,NwLrQF@Q'%Uu'r4`9m246
     A10qhkr 1C2020 09 14$B48$WT\[A2d8\o_Ff\U;=M*#fQ'cfaUD?0ZyE!e/s#FibHi(^Ex246
     A10qhkr 1C2020 09 14L(%m3aVyH1wAu2tu3_*acP*%SMb7r`9yBslU4/\g`hereX=rR8`l246
     A10qhkr 1C2020 09 14BG/M+4ZXPK+j?*2lPB,+skt6'(Xs%Y\RdpfB!7MkV1$;(G+EAPs1246
     A10qhkr 1C2020 09 15HT:'?_cKI4kF5(s9_^;^xHCCCNp.vK#RuF@*7f?t9Egx^\SBZ!@W246
     A10qhkr KC2020 09 15xHN,Dy/!+*r!+8+v$JJqJ7p.N#*.$$@VLnbKGK,0x.o69knpfBa6L07
     A10qhkr KC2020 09 15*594xqmMs2iD3;K?%IMt:Ae.95N5wd?2W-0NN!t:kr'`CGeGN_;IZ99
     A10qhkr KC2020 09 15$#:RQ7pp#NXhV2X,1#Y8=9(#hAkyv.9N_*x0.LBv)Tl;;WrtJ5PcZ99
     A10qhkr KC2020 09 15qT+8LwkH_+PxiO.QU*M8_tS+KtU:J?1X$#_!oa`T8_CgGuvR5kvBZ99
     A10qhkr 1C2020 09 15k(He7bi0t5Qa6FHQ`forjx'ksXwOmhL5Y.]xyh0tjE%+5LSfn0XO246
     A10qhkr 1C2020 09 15Q-y'Th-j!o'n'BXUf#[q9a$YArDF+/y2dAs.CBiwkq?I+';VtZSx246
     A10qhkr 1C2020 09 15-wx/w)Qp\rCDof4explanationl1_e4?p;[5]aC[Ht3WL=O#3fO0246
     A10qhkr 1C2020 09 150EvDka]Wv#'7^.'uIJ1qxD(J;W'(CW9.Vi,!Qj2MG:+EZ%IEPHjX246
     A10qhkr 1C2020 09 15L_iTh3e[AAJMv!q/NIm#%l^^)4dMlj3[DUH/6C*`K'B6Da97*`jg246
     A10qhkr KC2020 09 16\.TqS/ty=G:h(0eT1lD)P!+*aOH(1V]\/FVN':/J''X-8$,AT-8nK87
     A10qhkr KC2020 09 16U`v@=3Z3,Za3NWvR9#0;5,\C9\aqB879Kn@_[?BnmSjylH0mcEShK87
     A10qhkr KC2020 09 16.06958402 31 02.19 -05 04 00.7    ~9G9q 18.7 GVNEOCPC95
     A10qhkr KC2020 09 16mJThGF%`rsZWT;QPcx^-x*U.Qs-+suxi,W!S7;%dv6skgIT@aalqK87
     A10qhkr KC2020 09 16.08186702 31 00.70 -05 04 14.3    ~9G9q 19.1 GVNEOCPC95
     A10qhkr KC2020 09 16.09415602 30 59.05 -05 04 28.6    ~9G9q 19.1 GVNEOCPC95
     A10qhkr KC2020 09 16LCjYN=.,bgctU%S?Ui81TQ#ooI@um0.uMpV4YwRvqaUJ0msd$ir/Z08
     A10qhkr KC2020 09 16FBXpb-=solfH4yE@up'+tboh5ZF$RVJtht]v70k^d1,S0,s`VUEQZ08
     A10qhkr KC2020 09 16q:s,t?dMOh!rc8HTHm8g%y@i+9);HNlsi?%=9CDh2F:u^bOaVBN[711
     A10qhkr KC2020 09 16AH$a.Ad6h]%-=CF`girg)GFQAso7:=;@X#av:)4s7Qp7k^Zd%de+711
     A10qhkr KC2020 09 16dLf5u#)lrI%ve!6n5/_@Q21vCOa)9XU%m+\QwUQ?$Ahm*M4dXF\j711
     A10qhkr  C2020 09 16.48717402 30 09.15 -05 11 53.6    ~9GDb 19.09oVNEOCPT08
     A10qhkr  C2020 09 16.48902302 30 08.75 -05 11 56.1    ~9GDb 19.46oVNEOCPT08
     A10qhkr  C2020 09 16.49178702 30 08.53 -05 11 59.2    ~9GDb 19.37oVNEOCPT08
     A10qhkr  C2020 09 16.50147902 30 07.30 -05 12 10.3    ~9GDb 18.20oVNEOCPT08

Station data:
(106) Črni Vrh  (N45.945908 E14.071100)  Slovenia.  Observer J. Skvarč. 0.6-m
   f/3.3 Deltagraph + CCD.
(204) Schiaparelli Observatory  (N45.867933 E8.770800)  Italy.  Observer L.
   Buzzi. 0.60-m f/4.64 Newtonian + CCD.
(246) Klet Observatory-KLENOT  (N48.863293 E14.288100)  Czech Republic.
   1.06-m KLENOT telescope.
(568) Mauna Kea  (N19.826116 W155.472200)  US/Hawaii.
(595) Farra d'Isonzo  (N45.915734 E13.525780)  Italy.  Observers L.
   Bittesini, F. Fabris, E. Pettarin, F. Piani. Measurer E. Pettarin. 0.30-m
   f/4.5 reflector + CCD.
(703) Catalina Sky Survey  (N32.417006 W110.732640)  US/Arizona.  Observers
   T. A. Pruyne, B. M. Africano, E. J. Christensen, G. A. Farneth, D. C.
   Fuls, A. R. Gibbs, A. D. Grauer, H. Gröller, J. A. Johnson, R. A.
   Kowalski, S. M. Larson, G. J. Leonard, D. Rankin, R. L. Seaman, F. C.
   Shelly. 0.68 m Schmidt + 10K CCD.
(711) McDonald Observatory, Fort Davis  (N30.671481 W104.021500)  US/Texas.
   0.76-m f/3.0 reflector.
(B49) Paus Observatory, Sabadell  (N41.551035 E2.112500)  Spain.
(C95) SATINO Remote Observatory, Haute Provence  (N43.932042 E5.712390)
   France.  Observer J. Jahn. 0.60-m f/3.2 Newtonian reflector + CCD.
(E23) Arcadia  (S33.621199 E151.071190)  Australia/NSW.
(E94) Gisborne (Possum Observatory)  (S38.629922 E177.883310)  New Zealand.
(F51) Pan-STARRS 1, Haleakala  (N20.707235 W156.255910)  US/Hawaii.
   Observers N. Primak, A. Schultz, S. Watters, J. Thiel, T. Goggia. Measurer
   PS1 Science Consortium. 1.8-m Ritchey-Chrétien + CCD.
(H36) Sandlot Observatory, Scranton  (N38.797693 W95.706400)  US/Kansas.
   Observer G. Hug. 0.56-m reflector + CCD.
(I93) St Pardon de Conques  (N44.558710 W0.203000)  France.  Observer F.
   Losse. 0.40-m f/3.7 reflector + CCD.
(K87) Dettelbach Vineyard Observatory  (N49.807693 E10.170110)  Germany.
(L01) Višnjan Observatory, Tičan  (N45.290900 E13.749300)  Croatia.
   Observers K. Korlević, E. Pettarin. Measurer E. Pettarin. 1.0-m f/2.9
   reflector + CCD.
(L07) Osservatorio Salvatore di Giacomo, Agerola  (N40.623927 E14.564060)
   Italy.
(Q62) iTelescope Observatory, Siding Spring  (S31.273289 E149.064420)
   Australia/NSW. 0.50-m f/6.8 astrograph + CCD + focal reducer, 0.70-m f/6.6
   astrograph + CCD.
(T08) ATLAS-MLO, Mauna Loa  (N19.536152 W155.576050)  US/Hawaii.  Observers
   L. Denneau, A. Heinze, H. Weiland, J. Tonry, H. Flewelling, A.
   Fitzsimmons, D. Young, B. Stalder. Measurers L. Denneau, A. Heinze, J.
   Tonry. 0.5-m f/2.0 Schmidt + CCD.
(V01) Mountainville Observatory, Alpine  (N40.448904 W111.760890)  US/Utah.
(Z08) Telescope Live, Oria  (N37.501038 W2.408610)  Spain.
(Z99) Clixby Observatory, Cleethorpes  (N53.546062 W0.021260)  UK.

Orbital elements:  A10qhkr
   Perihelion 2021 Mar 2.172555 +/- 0.207 TT =  4:08:28 (JD 2459275.672555)
Epoch 2020 Sep 16.0 TT = JDT 2459108.5   Earth MOID: 0.1174   Ju: 0.0113
M 359.73765185 +/- 0.11             Ma: 0.0436   Sa: 0.5237   AutoNEOCP
n   0.00156932 +/- 0.000562         Peri.   47.01353 +/- 0.31
a  73.3377151 +/- 17.6              Node   323.32960 +/- 0.06
e   0.9860149 +/- 0.00326           Incl.  164.45521 +/- 0.009
P 628.05                   H 15.2   G  0.15   U  7.7  
q 1.02562834 +/- 0.00328    Q 145.649801 +/- 20.2
From 83 observations 2020 Aug. 29-Sept. 16; mean residual 0".61
Residuals in arcseconds: 
200829 703  1.3-  .54-    200913 V01  1.2+  .30-    200914 246  .72+  .18-    
200829 703  .14+  .02+    200913 H36  .62+  .23-    200914 246  .41-  .38-    
200829 703  2.0+  1.6+    200913 H36  .68+  .82-    200915 246  .86+  .31+    
200829 F51  .11-  .80-    200913 H36  .42+  .43-    200915 L07  .42+  .06-    
200829 F51  .72-  .27-    200913 H36  .31-  .34+    200915 Z99  .56-  .28-    
200910 F51  .78+  .23+    200913 568  .62+  .23-    200915 Z99  .46-  .77-    
200910 F51  .82+  .18+    200913 568  .61+  .24-    200915 Z99  .61-  .76-    
200912 T08  .21+  .31-    200913 568  .60+  .18-    200915 246  .76+  .63-    
200912 T08  .46-  .32-    200913 E23  .41-  .62+    200915 246  1.5+  .79-    
200912 T08  .77-  .64+    200913 E23  1.0-  .71+    200915 246  .26+  .15-    
200912 T08  .29-  .39+    200913 E23  .06+  .32+    200915 246  1.7+  .64+    
200912 F51  .42+  .10-    200913 Q62  .02-  .27-    200915 246  .39-  .02+    
200912 F51  .34+  .19-    200913 Q62  .07+  .33-    200916 K87  .47-  .17-    
200912 F51  .50+  .11-    200913 106  .34-  .69-    200916 K87  .26-  .01+    
200912 B49  1.8-  .41-    200913 106  .14-  .43-    200916 C95  .18-  .17-    
200912 B49  .75-  .92+    200914 106  .83-  .73+    200916 K87  .17-  .22+    
200913 595  .33-  .19-    200914 106  .18-  .52-    200916 C95  1.0+  .15+    
200913 595  .00   .24+    200914 E94  .45-  .25+    200916 C95  .19-  .22-    
200913 204  .01-  .03-    200914 E94  .56-  .01-    200916 Z08  .34+  .24+    
200913 204  .21+  .17-    200914 E94  .24+  .67-    200916 Z08  .28+  .34-    
200913 L01  .58+  .33+    200914 E94  .31-  .68+    200916 711  .22+  .20+    
200913 L01  .22+  .11-    200914 E94  1.3-  .61+    200916 711  .11-  .42+    
200913 L01  .84-  .32+    200914 E94  1.1-  .40+    200916 711  .18+  .34+    
200913 I93  .50+  .05+    200914 L07  .05+  .41-    200916 T08  .41+  .61+    
200913 I93  .12+  .68+    200914 L07  .21+  .12-    200916 T08  2.0-  .22+    
200913 I93  .29+  .07-    200914 246  .31-  .41-    200916 T08  .11+  .29+    
200913 V01  1.6-  .98+    200914 246  .60+  .88-    200916 T08  .58+  .28+    
200913 V01  .30+  .40+    200914 246  1.4+  .88-    

Ephemerides (geocentric):
Date (UTC) HH   RA              Dec         delta   r     elong  mag " sig PA
---- -- -- --  -------------   -----------  ------ ------ -----  --- ---- ---
2020 09 16 21  02 29 18.893   -05 19 17.88  1.8286 2.6564 137.3 19.4 .150 152
2020 09 16 22  02 29 13.465   -05 20 06.00  1.8276 2.6559 137.4 19.4 .153 152
2020 09 16 23  02 29 08.029   -05 20 54.16  1.8266 2.6554 137.4 19.4 .157 152
2020 09 17 00  02 29 02.584   -05 21 42.38  1.8257 2.6549 137.5 19.4 .160 153
2020 09 17 01  02 28 57.130   -05 22 30.64  1.8247 2.6544 137.5 19.4 .163 153
2020 09 17 02  02 28 51.668   -05 23 18.94  1.8237 2.6540 137.6 19.4 .166 153
2020 09 17 03  02 28 46.197   -05 24 07.29  1.8228 2.6535 137.7 19.4 .169 153
2020 09 17 04  02 28 40.718   -05 24 55.69  1.8218 2.6530 137.7 19.4 .173 154
2020 09 17 05  02 28 35.230   -05 25 44.14  1.8208 2.6525 137.8 19.4 .176 154
2020 09 17 06  02 28 29.734   -05 26 32.63  1.8198 2.6520 137.8 19.4 .179 154
2020 09 17 07  02 28 24.229   -05 27 21.17  1.8189 2.6516 137.9 19.4 .182 154
2020 09 17 08  02 28 18.716   -05 28 09.76  1.8179 2.6511 137.9 19.4 .186 154
2020 09 17 09  02 28 13.194   -05 28 58.40  1.8169 2.6506 138.0 19.4 .189 155
2020 09 17 10  02 28 07.663   -05 29 47.08  1.8160 2.6501 138.1 19.4 .192 155
2020 09 17 11  02 28 02.124   -05 30 35.80  1.8150 2.6496 138.1 19.4 .196 155
2020 09 17 12  02 27 56.576   -05 31 24.58  1.8140 2.6491 138.2 19.4 .199 155
2020 09 17 13  02 27 51.020   -05 32 13.40  1.8131 2.6487 138.2 19.4 .203 155
2020 09 17 14  02 27 45.454   -05 33 02.27  1.8121 2.6482 138.3 19.4 .206 155
2020 09 17 15  02 27 39.881   -05 33 51.18  1.8111 2.6477 138.3 19.4 .210 156
2020 09 17 16  02 27 34.298   -05 34 40.14  1.8102 2.6472 138.4 19.4 .213 156
2020 09 17 17  02 27 28.707   -05 35 29.15  1.8092 2.6467 138.5 19.4 .216 156
2020 09 17 18  02 27 23.108   -05 36 18.20  1.8083 2.6463 138.5 19.4 .220 156
2020 09 17 19  02 27 17.499   -05 37 07.31  1.8073 2.6458 138.6 19.4 .224 156
2020 09 17 20  02 27 11.882   -05 37 56.45  1.8063 2.6453 138.6 19.4 .227 157
2020 09 17 21  02 27 06.257   -05 38 45.65  1.8054 2.6448 138.7 19.4 .231 157
2020 09 17 22  02 27 00.622   -05 39 34.89  1.8044 2.6443 138.8 19.4 .234 157
2020 09 17 23  02 26 54.979   -05 40 24.18  1.8035 2.6438 138.8 19.4 .238 157
2020 09 18 00  02 26 49.328   -05 41 13.51  1.8025 2.6434 138.9 19.4 .242 157
2020 09 18 01  02 26 43.667   -05 42 02.89  1.8016 2.6429 138.9 19.4 .245 158
2020 09 18 02  02 26 37.998   -05 42 52.32  1.8006 2.6424 139.0 19.4 .249 158
2020 09 18 03  02 26 32.320   -05 43 41.80  1.7996 2.6419 139.0 19.4 .253 158
2020 09 18 04  02 26 26.634   -05 44 31.32  1.7987 2.6414 139.1 19.4 .256 158
2020 09 18 05  02 26 20.938   -05 45 20.88  1.7977 2.6410 139.2 19.4 .260 158
2020 09 18 06  02 26 15.234   -05 46 10.50  1.7968 2.6405 139.2 19.4 .264 158
2020 09 18 07  02 26 09.521   -05 47 00.16  1.7958 2.6400 139.3 19.4 .268 159
2020 09 18 08  02 26 03.800   -05 47 49.87  1.7949 2.6395 139.3 19.4 .272 159
2020 09 18 09  02 25 58.070   -05 48 39.62  1.7939 2.6390 139.4 19.4 .275 159
2020 09 18 10  02 25 52.330   -05 49 29.42  1.7930 2.6386 139.4 19.4 .279 159
2020 09 18 11  02 25 46.583   -05 50 19.27  1.7920 2.6381 139.5 19.4 .283 159
2020 09 18 12  02 25 40.826   -05 51 09.16  1.7911 2.6376 139.6 19.4 .287 160
2020 09 18 13  02 25 35.060   -05 51 59.10  1.7901 2.6371 139.6 19.4 .291 160
2020 09 18 14  02 25 29.286   -05 52 49.09  1.7892 2.6366 139.7 19.4 .295 160
2020 09 18 15  02 25 23.503   -05 53 39.12  1.7882 2.6361 139.7 19.4 .299 160
2020 09 18 16  02 25 17.711   -05 54 29.20  1.7873 2.6357 139.8 19.3 .303 160
2020 09 18 17  02 25 11.910   -05 55 19.32  1.7864 2.6352 139.9 19.3 .307 160
2020 09 18 18  02 25 06.101   -05 56 09.49  1.7854 2.6347 139.9 19.3 .311 161
2020 09 18 19  02 25 00.282   -05 56 59.71  1.7845 2.6342 140.0 19.3 .315 161
2020 09 18 20  02 24 54.455   -05 57 49.98  1.7835 2.6337 140.0 19.3 .319 161